,BUOY,ASSAY_DATE,ASSAY_TIME,FLOW_DIRECTION10M,VELOCITY10M,FLOW_DIRECTION30M,VELOCITY30M,FLOW_DIRECTION100M,VELOCITY100M,WATER_TEMP,WIND_DIRECTION,WIND_SPEED,WATER_TEMP_1DAY_AVE
0,B09,2024-05-15,01:00:00,77.0,0.019438444924406047,303,0.2993520518358531,341,0.18077753779697625,21.6,50,6.82,21.6
1,B09,2024-05-15,00:00:00,9.0,0.07969762419006479,295,0.3596112311015119,322,0.2390928725701944,21.6,37,7.27,21.6
2,B09,2024-05-11,19:00:00,227.0,0.639524838012959,239,0.5695464362850972,221,0.5306695464362851,21.4,71,3.71,21.64
3,B09,2024-05-11,18:00:00,216.0,0.7308855291576674,213,0.6006479481641469,187,0.34989200863930886,21.8,71,3.43,21.64
4,B09,2024-05-11,17:00:00,218.0,0.7794816414686825,215,0.649244060475162,140,0.4295896328293737,22.1,88,2.15,21.64
5,B09,2024-05-11,16:00:00,190.0,0.649244060475162,199,0.6900647948164147,127,0.4704103671706264,22.1,99,2.53,21.64
6,B09,2024-05-11,15:00:00,180.0,0.4606911447084234,182,0.5306695464362851,177,0.34989200863930886,22.4,102,2.2,21.64
7,B09,2024-05-11,14:00:00,168.0,0.4995680345572354,154,0.4295896328293737,131,0.3304535637149028,21.9,129,1.34,21.64
8,B09,2024-05-11,13:00:00,138.0,0.5695464362850972,122,0.34017278617710583,5,0.2390928725701944,21.8,153,1.94,21.64
9,B09,2024-05-11,12:00:00,105.0,0.4295896328293737,98,0.30907127429805614,356,0.27991360691144707,22.1,158,2.09,21.64
10,B09,2024-05-11,11:00:00,74.0,0.37904967602591794,90,0.260475161987041,297,0.34989200863930886,21.8,167,3.98,21.64
11,B09,2024-05-11,10:00:00,52.0,0.20993520518358533,355,0.20993520518358533,291,0.5695464362850972,21.7,153,3.12,21.64
12,B09,2024-05-11,09:00:00,325.0,0.5695464362850972,327,0.44902807775377973,253,0.5695464362850972,21.1,61,3.57,21.64
13,B09,2024-05-11,08:00:00,294.0,0.4801295896328294,286,0.27019438444924404,240,0.5695464362850972,21.1,64,3.38,21.64
14,B09,2024-05-11,07:00:00,265.0,0.41015118790496763,239,0.37904967602591794,217,0.6006479481641469,21.1,64,3.75,21.64
15,B09,2024-05-11,06:00:00,249.0,0.520950323974082,225,0.41015118790496763,195,0.5306695464362851,21.0,50,4.91,21.64
16,B09,2024-05-11,05:00:00,238.0,0.4704103671706264,225,0.30907127429805614,187,0.629805615550756,21.2,45,5.5,21.64
17,B09,2024-05-11,04:00:00,212.0,0.44902807775377973,189,0.3304535637149028,177,0.37904967602591794,21.3,26,4.59,21.64
18,B09,2024-05-11,03:00:00,182.0,0.3304535637149028,182,0.18077753779697625,238,0.30907127429805614,21.3,213,2.71,21.64
19,B09,2024-05-11,02:00:00,153.0,0.3693304535637149,157,0.2002159827213823,201,0.260475161987041,21.6,198,2.62,21.64
20,B09,2024-05-11,01:00:00,124.0,0.5306695464362851,162,0.22937365010799138,209,0.21965442764578835,21.9,180,3.58,21.64
21,B09,2024-05-11,00:00:00,97.0,0.4704103671706264,111,0.21965442764578835,185,0.09913606911447084,22.1,175,3.85,21.64
22,B09,2024-05-10,23:00:00,102.0,0.3304535637149028,110,0.06997840172786177,215,0.19049676025917928,22.3,165,3.48,21.87
23,B09,2024-05-10,22:00:00,41.0,0.1691144708423326,287,0.19049676025917928,233,0.27019438444924404,22.6,167,3.45,21.87
24,B09,2024-05-10,21:00:00,325.0,0.09913606911447084,251,0.41015118790496763,207,0.41987041036717065,23.3,160,4.02,21.87
25,B09,2024-05-10,20:00:00,271.0,0.15939524838012958,237,0.5092872570194384,192,0.4295896328293737,23.5,163,3.18,21.87
26,B09,2024-05-10,19:00:00,215.0,0.260475161987041,211,0.649244060475162,176,0.4801295896328294,23.6,149,3.91,21.87
27,B09,2024-05-10,18:00:00,213.0,0.5092872570194384,189,0.620086393088553,175,0.3304535637149028,23.7,137,4.77,21.87
28,B09,2024-05-10,17:00:00,218.0,0.4704103671706264,189,0.520950323974082,184,0.34989200863930886,23.9,137,5.17,21.87
29,B09,2024-05-10,16:00:00,202.0,0.34017278617710583,190,0.4295896328293737,184,0.27991360691144707,22.3,135,4.62,21.87
30,B09,2024-05-10,15:00:00,157.0,0.3304535637149028,170,0.44902807775377973,186,0.5598272138228941,22.5,90,4.21,21.87
31,B09,2024-05-10,14:00:00,110.0,0.21965442764578835,130,0.2390928725701944,150,0.4393088552915767,21.6,77,6.52,21.87
32,B09,2024-05-10,13:00:00,116.0,0.3596112311015119,113,0.41015118790496763,86,0.1302375809935205,21.7,92,4.25,21.87
33,B09,2024-05-10,12:00:00,100.0,0.44902807775377973,97,0.6103671706263499,90,0.08941684665226782,21.6,101,4.52,21.87
34,B09,2024-05-10,11:00:00,77.0,0.4004319654427646,84,0.620086393088553,355,0.07969762419006479,21.3,73,5.51,21.87
35,B09,2024-05-10,10:00:00,71.0,0.34017278617710583,58,0.5695464362850972,339,0.27019438444924404,21.3,64,5.58,21.87
36,B09,2024-05-10,09:00:00,13.0,0.34017278617710583,27,0.3207343412526998,295,0.4295896328293737,21.4,68,3.88,21.87
37,B09,2024-05-10,08:00:00,333.0,0.260475161987041,5,0.3693304535637149,290,0.3207343412526998,21.1,64,3.44,21.87
38,B09,2024-05-10,07:00:00,283.0,0.34989200863930886,326,0.260475161987041,280,0.3907127429805616,21.1,36,5.23,21.87
39,B09,2024-05-10,06:00:00,253.0,0.5695464362850972,248,0.4606911447084234,236,0.260475161987041,21.0,30,4.79,21.87
40,B09,2024-05-10,05:00:00,234.0,0.6103671706263499,262,0.7600431965442764,178,0.3207343412526998,20.8,37,3.57,21.87
41,B09,2024-05-10,04:00:00,219.0,0.620086393088553,249,0.7892008639308855,242,0.41015118790496763,20.7,39,5.35,21.87
42,B09,2024-05-10,03:00:00,194.0,0.5092872570194384,225,0.5598272138228941,246,0.27991360691144707,20.8,26,4.73,21.87
43,B09,2024-05-10,02:00:00,177.0,0.5909287257019439,189,0.37904967602591794,239,0.3304535637149028,20.8,2,3.37,21.87
44,B09,2024-05-10,01:00:00,120.0,0.5501079913606911,174,0.34017278617710583,222,0.3207343412526998,20.9,352,2.93,21.87
45,B09,2024-05-10,00:00:00,114.0,0.520950323974082,162,0.22937365010799138,201,0.260475161987041,21.1,341,3.4,21.87
46,B09,2024-05-09,23:00:00,100.0,0.4393088552915767,192,0.18077753779697625,222,0.2390928725701944,21.1,331,3.22,21.1
47,B09,2024-05-09,22:00:00,68.0,0.3596112311015119,238,0.08941684665226782,276,0.07969762419006479,21.2,282,0.96,21.1
48,B09,2024-05-09,21:00:00,31.0,0.27991360691144707,284,0.2002159827213823,256,0.14967602591792656,21.2,106,1.09,21.1
49,B09,2024-05-09,20:00:00,335.0,0.21965442764578835,254,0.34017278617710583,297,0.3907127429805616,21.3,111,1.35,21.1
50,B09,2024-05-09,19:00:00,302.0,0.19049676025917928,225,0.34017278617710583,199,0.18077753779697625,21.2,165,1.99,21.1
51,B09,2024-05-09,18:00:00,241.0,0.2993520518358531,204,0.4004319654427646,160,0.14967602591792656,21.3,175,2.9,21.1
52,B09,2024-05-09,17:00:00,270.0,0.22937365010799138,209,0.3304535637149028,230,0.21965442764578835,21.4,161,3.9,21.1
53,B09,2024-05-09,16:00:00,244.0,0.21965442764578835,194,0.4295896328293737,192,0.34989200863930886,21.7,184,3.49,21.1
54,B09,2024-05-09,15:00:00,227.0,0.27991360691144707,176,0.3907127429805616,158,0.21965442764578835,21.6,208,1.22,21.1
55,B09,2024-05-09,14:00:00,239.0,0.2002159827213823,169,0.3304535637149028,156,0.2390928725701944,21.6,158,1.49,21.1
56,B09,2024-05-09,13:00:00,143.0,0.34017278617710583,146,0.30907127429805614,120,0.06025917926565874,21.3,11,1.58,21.1
57,B09,2024-05-09,12:00:00,73.0,0.11079913606911447,112,0.21965442764578835,102,0.06025917926565874,21.1,354,3.09,21.1
58,B09,2024-05-09,11:00:00,68.0,0.11079913606911447,65,0.27991360691144707,17,0.2390928725701944,21.0,329,2.65,21.1
59,B09,2024-05-09,10:00:00,308.0,0.20993520518358533,22,0.20993520518358533,291,0.07969762419006479,20.9,354,5.76,21.1
60,B09,2024-05-09,09:00:00,305.0,0.27019438444924404,355,0.2390928725701944,324,0.260475161987041,20.8,354,7.32,21.1
61,B09,2024-05-09,08:00:00,268.0,0.41015118790496763,315,0.3207343412526998,215,0.21965442764578835,20.7,343,6.21,21.1
62,B09,2024-05-09,07:00:00,269.0,0.34017278617710583,310,0.4393088552915767,250,0.27019438444924404,20.7,351,8.47,21.1
63,B09,2024-05-09,06:00:00,251.0,0.44902807775377973,281,0.48984881209503245,237,0.27991360691144707,20.7,2,8.62,21.1
64,B09,2024-05-09,05:00:00,224.0,0.5306695464362851,230,0.5092872570194384,232,0.2993520518358531,20.8,0,8.91,21.1
65,B09,2024-05-09,04:00:00,217.0,0.4004319654427646,242,0.4606911447084234,250,0.2002159827213823,20.9,7,8.26,21.1
66,B09,2024-05-09,03:00:00,185.0,0.3304535637149028,230,0.4704103671706264,190,0.2993520518358531,20.9,5,7.2,21.1
67,B09,2024-05-09,02:00:00,174.0,0.2002159827213823,231,0.27991360691144707,187,0.22937365010799138,21.0,1,7.55,21.1
68,B09,2024-05-09,01:00:00,163.0,0.18077753779697625,219,0.250755939524838,221,0.1302375809935205,21.0,8,8.0,21.1
69,B09,2024-05-09,00:00:00,170.0,0.20993520518358533,210,0.3596112311015119,252,0.21965442764578835,21.0,8,8.51,21.1
70,B09,2024-05-08,23:00:00,153.0,0.2002159827213823,203,0.3207343412526998,249,0.11079913606911447,21.0,16,8.75,21.32
71,B09,2024-05-08,22:00:00,92.0,0.11079913606911447,204,0.20993520518358533,216,0.260475161987041,21.0,2,9.48,21.32
72,B09,2024-05-08,21:00:00,25.0,0.12051835853131748,228,0.18077753779697625,233,0.2993520518358531,21.0,9,10.87,21.32
73,B09,2024-05-08,20:00:00,320.0,0.37904967602591794,267,0.260475161987041,213,0.4393088552915767,21.0,18,11.18,21.32
74,B09,2024-05-08,19:00:00,340.0,0.22937365010799138,195,0.21965442764578835,238,0.4004319654427646,21.1,12,8.43,21.32
75,B09,2024-05-08,18:00:00,324.0,0.19049676025917928,191,0.34989200863930886,203,0.30907127429805614,21.2,30,8.61,21.32
76,B09,2024-05-08,17:00:00,288.0,0.250755939524838,188,0.27991360691144707,164,0.41987041036717065,21.6,338,5.39,21.32
77,B09,2024-05-08,16:00:00,284.0,0.30907127429805614,188,0.21965442764578835,142,0.2993520518358531,21.8,268,4.7,21.32
78,B09,2024-05-08,15:00:00,279.0,0.34989200863930886,102,0.08941684665226782,128,0.22937365010799138,21.9,241,2.14,21.32
79,B09,2024-05-08,14:00:00,298.0,0.20993520518358533,238,0.009719222462203024,178,0.19049676025917928,21.7,298,2.43,21.32
80,B09,2024-05-08,13:00:00,247.0,0.18077753779697625,116,0.2390928725701944,186,0.019438444924406047,21.5,285,6.02,21.32
81,B09,2024-05-08,12:00:00,253.0,0.06025917926565874,78,0.2390928725701944,18,0.06997840172786177,21.4,277,6.61,21.32
82,B09,2024-05-08,11:00:00,283.0,0.3304535637149028,12,0.30907127429805614,333,0.019438444924406047,21.4,275,6.86,21.32
83,B09,2024-05-08,10:00:00,287.0,0.4004319654427646,353,0.520950323974082,191,0.0408207343412527,21.3,284,6.51,21.32
84,B09,2024-05-08,09:00:00,276.0,0.27019438444924404,328,0.48984881209503245,285,0.05053995680345572,21.2,278,6.6,21.32
85,B09,2024-05-08,08:00:00,289.0,0.20993520518358533,293,0.4995680345572354,291,0.15939524838012958,21.2,286,8.52,21.32
86,B09,2024-05-08,07:00:00,222.0,0.260475161987041,271,0.22937365010799138,235,0.1302375809935205,21.1,282,6.62,21.32
87,B09,2024-05-08,06:00:00,213.0,0.34017278617710583,260,0.27019438444924404,198,0.18077753779697625,21.2,279,8.56,21.32
88,B09,2024-05-08,05:00:00,213.0,0.27991360691144707,270,0.22937365010799138,229,0.18077753779697625,21.3,279,8.91,21.32
89,B09,2024-05-08,04:00:00,179.0,0.37904967602591794,242,0.27019438444924404,195,0.2993520518358531,21.3,282,7.77,21.32
90,B09,2024-05-08,03:00:00,167.0,0.3907127429805616,221,0.1691144708423326,215,0.21965442764578835,21.4,281,8.08,21.32
91,B09,2024-05-08,02:00:00,155.0,0.3907127429805616,226,0.19049676025917928,214,0.1302375809935205,21.4,286,10.75,21.32
92,B09,2024-05-08,01:00:00,137.0,0.520950323974082,185,0.20993520518358533,202,0.21965442764578835,21.4,291,10.47,21.32
93,B09,2024-05-08,00:00:00,116.0,0.44902807775377973,162,0.22937365010799138,210,0.260475161987041,21.4,286,8.35,21.32
94,B09,2024-05-07,23:00:00,90.0,0.6609071274298056,123,0.4295896328293737,209,0.2390928725701944,21.4,286,8.57,21.48
95,B09,2024-05-07,22:00:00,85.0,0.4606911447084234,134,0.18077753779697625,278,0.14967602591792656,21.4,284,6.01,21.48
96,B09,2024-05-07,21:00:00,50.0,0.4295896328293737,78,0.14967602591792656,223,0.27991360691144707,21.4,293,5.54,21.48
97,B09,2024-05-07,20:00:00,,0.48984881209503245,30,0.2002159827213823,212,0.3693304535637149,21.3,312,6.35,21.48
98,B09,2024-05-07,19:00:00,331.0,0.41987041036717065,3,0.06997840172786177,249,0.250755939524838,21.3,306,6.89,21.48
99,B09,2024-05-07,18:00:00,318.0,0.2390928725701944,170,0.08941684665226782,176,0.41015118790496763,21.3,299,7.92,21.48
100,B09,2024-05-07,17:00:00,280.0,0.2002159827213823,167,0.07969762419006479,176,0.37904967602591794,21.5,300,7.09,21.48
101,B09,2024-05-07,16:00:00,269.0,0.2390928725701944,199,0.09913606911447084,163,0.250755939524838,21.6,261,5.85,21.48
102,B09,2024-05-07,15:00:00,227.0,0.13995680345572353,189,0.019438444924406047,142,0.07969762419006479,21.7,265,6.27,21.48
103,B09,2024-05-07,14:00:00,231.0,0.2993520518358531,144,0.20993520518358533,103,0.0408207343412527,21.8,278,6.34,21.48
104,B09,2024-05-07,13:00:00,235.0,0.4393088552915767,165,0.2002159827213823,118,0.1691144708423326,21.7,284,6.12,21.48
105,B09,2024-05-07,12:00:00,225.0,0.20993520518358533,82,0.0408207343412527,306,0.029157667386609073,21.8,279,7.73,21.48
106,B09,2024-05-07,11:00:00,208.0,0.1691144708423326,43,0.029157667386609073,325,0.05053995680345572,21.7,288,8.22,21.48
107,B09,2024-05-07,10:00:00,184.0,0.19049676025917928,78,0.07969762419006479,311,0.07969762419006479,21.5,289,8.86,21.48
108,B09,2024-05-07,09:00:00,182.0,0.1691144708423326,351,0.08941684665226782,231,0.05053995680345572,21.4,293,7.52,21.48
109,B09,2024-05-07,08:00:00,178.0,0.2002159827213823,254,0.029157667386609073,214,0.0408207343412527,21.4,279,8.62,21.48
110,B09,2024-05-07,07:00:00,177.0,0.27019438444924404,247,0.14967602591792656,241,0.0408207343412527,21.4,272,8.02,21.48
111,B09,2024-05-07,06:00:00,180.0,0.27991360691144707,259,0.15939524838012958,240,0.260475161987041,21.5,272,6.25,21.48
112,B09,2024-05-07,05:00:00,137.0,0.21965442764578835,281,0.14967602591792656,224,0.3693304535637149,21.5,244,5.63,21.48
113,B09,2024-05-07,04:00:00,169.0,0.3304535637149028,265,0.12051835853131748,245,0.30907127429805614,21.4,227,9.54,21.48
114,B09,2024-05-07,03:00:00,114.0,0.2002159827213823,268,0.22937365010799138,186,0.2002159827213823,21.4,237,7.91,21.48
115,B09,2024-05-07,02:00:00,141.0,0.18077753779697625,253,0.34017278617710583,174,0.2390928725701944,21.4,237,8.16,21.48
116,B09,2024-05-07,01:00:00,89.0,0.21965442764578835,250,0.1302375809935205,342,0.06997840172786177,21.4,250,6.63,21.48
117,B09,2024-05-07,00:00:00,140.0,0.14967602591792656,225,0.22937365010799138,161,0.08941684665226782,21.4,196,13.23,21.48
118,B09,2024-05-06,23:00:00,131.0,0.13995680345572353,217,0.2002159827213823,225,0.05053995680345572,21.4,181,11.71,21.51
119,B09,2024-05-06,22:00:00,45.0,0.18077753779697625,252,0.1302375809935205,341,0.1302375809935205,21.4,175,14.21,21.51
120,B09,2024-05-06,21:00:00,43.0,0.19049676025917928,243,0.15939524838012958,306,0.06997840172786177,21.4,163,14.86,21.51
121,B09,2024-05-06,20:00:00,339.0,0.05053995680345572,223,0.19049676025917928,352,0.0408207343412527,21.5,154,13.53,21.51
122,B09,2024-05-06,19:00:00,277.0,0.2390928725701944,229,0.2993520518358531,211,0.0408207343412527,21.5,150,12.87,21.51
123,B09,2024-05-06,18:00:00,205.0,0.1691144708423326,210,0.3596112311015119,198,0.07969762419006479,21.5,154,11.72,21.51
124,B09,2024-05-06,17:00:00,206.0,0.260475161987041,205,0.4704103671706264,157,0.18077753779697625,21.5,167,10.59,21.51
125,B09,2024-05-06,16:00:00,233.0,0.21965442764578835,198,0.27991360691144707,146,0.13995680345572353,21.5,153,8.49,21.51
126,B09,2024-05-06,15:00:00,244.0,0.21965442764578835,200,0.3304535637149028,141,0.15939524838012958,21.5,147,8.13,21.51
127,B09,2024-05-06,14:00:00,231.0,0.2002159827213823,197,0.260475161987041,265,0.06025917926565874,21.5,151,7.45,21.51
128,B09,2024-05-06,13:00:00,231.0,0.20993520518358533,209,0.2002159827213823,228,0.18077753779697625,21.5,163,7.72,21.51
129,B09,2024-05-06,12:00:00,246.0,0.30907127429805614,249,0.2390928725701944,221,0.250755939524838,21.5,175,7.28,21.51
130,B09,2024-05-06,11:00:00,217.0,0.3907127429805616,219,0.20993520518358533,270,0.1691144708423326,21.5,160,8.32,21.51
131,B09,2024-05-06,10:00:00,198.0,0.27991360691144707,224,0.20993520518358533,249,0.260475161987041,21.5,150,7.94,21.51
132,B09,2024-05-06,09:00:00,203.0,0.18077753779697625,251,0.20993520518358533,216,0.14967602591792656,21.5,146,8.84,21.51
133,B09,2024-05-06,08:00:00,150.0,0.1691144708423326,229,0.22937365010799138,229,0.27019438444924404,21.5,146,8.83,21.51
134,B09,2024-05-06,07:00:00,200.0,0.18077753779697625,253,0.21965442764578835,218,0.1691144708423326,21.5,137,7.86,21.51
135,B09,2024-05-06,06:00:00,195.0,0.08941684665226782,261,0.260475161987041,233,0.250755939524838,21.5,147,7.78,21.51
136,B09,2024-05-06,05:00:00,240.0,0.27019438444924404,273,0.3907127429805616,226,0.5403887688984881,21.6,146,8.71,21.51
137,B09,2024-05-06,04:00:00,255.0,0.34989200863930886,264,0.520950323974082,225,0.5695464362850972,21.6,158,8.07,21.51
138,B09,2024-05-06,03:00:00,243.0,0.41015118790496763,249,0.5092872570194384,212,0.6006479481641469,21.6,157,7.7,21.51
139,B09,2024-05-06,02:00:00,261.0,0.2993520518358531,250,0.4995680345572354,193,0.5501079913606911,21.6,154,8.43,21.51
140,B09,2024-05-06,01:00:00,254.0,0.41015118790496763,250,0.5909287257019439,172,0.37904967602591794,21.6,163,8.49,21.51
141,B09,2024-05-06,00:00:00,230.0,0.4995680345572354,224,0.629805615550756,173,0.19049676025917928,21.5,161,7.54,21.51
142,B09,2024-05-05,23:00:00,226.0,0.30907127429805614,222,0.44902807775377973,222,0.05053995680345572,21.5,172,6.84,21.52
143,B09,2024-05-05,22:00:00,231.0,0.27019438444924404,214,0.34017278617710583,251,0.08941684665226782,21.5,151,6.01,21.52
144,B09,2024-05-05,21:00:00,211.0,0.3207343412526998,212,0.4801295896328294,288,0.1691144708423326,21.5,118,6.21,21.52
145,B09,2024-05-05,20:00:00,228.0,0.2002159827213823,214,0.3207343412526998,234,0.2993520518358531,21.4,109,8.57,21.52
146,B09,2024-05-05,19:00:00,234.0,0.250755939524838,213,0.4295896328293737,259,0.27991360691144707,21.4,105,8.97,21.52
147,B09,2024-05-05,18:00:00,238.0,0.12051835853131748,228,0.30907127429805614,250,0.1302375809935205,21.4,99,8.77,21.52
148,B09,2024-05-05,17:00:00,272.0,0.27019438444924404,217,0.37904967602591794,237,0.21965442764578835,21.5,102,10.14,21.52
149,B09,2024-05-05,16:00:00,278.0,0.3596112311015119,242,0.3693304535637149,227,0.08941684665226782,21.5,94,9.1,21.52
150,B09,2024-05-05,15:00:00,249.0,0.3304535637149028,220,0.520950323974082,250,0.4995680345572354,21.6,95,9.34,21.52
151,B09,2024-05-05,14:00:00,265.0,0.27991360691144707,226,0.27991360691144707,255,0.30907127429805614,21.7,97,8.8,21.52
152,B09,2024-05-05,13:00:00,261.0,0.27019438444924404,213,0.250755939524838,241,0.22937365010799138,21.7,101,9.0,21.52
153,B09,2024-05-05,12:00:00,262.0,0.3693304535637149,256,0.30907127429805614,224,0.250755939524838,21.7,99,8.7,21.52
154,B09,2024-05-05,11:00:00,256.0,0.41987041036717065,265,0.3907127429805616,213,0.21965442764578835,21.6,106,9.28,21.52
155,B09,2024-05-05,10:00:00,244.0,0.4295896328293737,239,0.4606911447084234,227,0.34989200863930886,21.6,81,8.41,21.52
156,B09,2024-05-05,09:00:00,243.0,0.3693304535637149,244,0.41015118790496763,238,0.260475161987041,21.5,81,7.89,21.52
157,B09,2024-05-05,08:00:00,250.0,0.27991360691144707,251,0.4004319654427646,231,0.27019438444924404,21.5,70,8.32,21.52
158,B09,2024-05-05,07:00:00,245.0,0.20993520518358533,271,0.27991360691144707,275,0.07969762419006479,21.4,70,7.06,21.52
159,B09,2024-05-05,06:00:00,277.0,0.250755939524838,268,0.41015118790496763,235,0.12051835853131748,21.4,64,6.72,21.52
160,B09,2024-05-05,05:00:00,275.0,0.3596112311015119,275,0.5306695464362851,252,0.19049676025917928,21.5,60,5.88,21.52
161,B09,2024-05-05,04:00:00,276.0,0.4704103671706264,278,0.6609071274298056,232,0.27019438444924404,21.5,53,5.56,21.52
162,B09,2024-05-05,03:00:00,264.0,0.6900647948164147,281,0.7794816414686825,234,0.19049676025917928,21.5,59,4.08,21.52
163,B09,2024-05-05,02:00:00,252.0,0.48984881209503245,264,0.7503239740820734,255,0.11079913606911447,21.5,63,5.26,21.52
164,B09,2024-05-05,01:00:00,263.0,0.4606911447084234,260,0.7697624190064795,264,0.15939524838012958,21.5,75,4.81,21.52
165,B09,2024-05-05,00:00:00,268.0,0.4704103671706264,268,0.5909287257019439,215,0.15939524838012958,21.6,82,4.84,21.52
166,B09,2024-05-04,23:00:00,225.0,0.4393088552915767,233,0.5598272138228941,302,0.1691144708423326,21.6,106,5.03,21.6
167,B09,2024-05-04,22:00:00,213.0,0.4004319654427646,209,0.41015118790496763,312,0.18077753779697625,21.6,92,5.96,21.6
168,B09,2024-05-04,21:00:00,204.0,0.27991360691144707,212,0.34989200863930886,306,0.2390928725701944,21.6,85,6.32,21.6
169,B09,2024-05-04,20:00:00,200.0,0.11079913606911447,185,0.2390928725701944,306,0.250755939524838,21.7,87,5.16,21.6
170,B09,2024-05-04,19:00:00,23.0,0.13995680345572353,62,0.08941684665226782,271,0.08941684665226782,21.7,88,4.71,21.6
171,B09,2024-05-04,18:00:00,351.0,0.08941684665226782,29,0.14967602591792656,284,0.08941684665226782,21.7,95,4.41,21.6
172,B09,2024-05-04,17:00:00,19.0,0.06997840172786177,336,0.0408207343412527,310,0.22937365010799138,21.9,99,4.54,21.6
173,B09,2024-05-04,16:00:00,319.0,0.21965442764578835,313,0.18077753779697625,306,0.20993520518358533,22.0,108,4.54,21.6
174,B09,2024-05-04,15:00:00,307.0,0.30907127429805614,303,0.3304535637149028,277,0.12051835853131748,22.1,101,4.64,21.6
175,B09,2024-05-04,14:00:00,315.0,0.41015118790496763,311,0.41015118790496763,262,0.019438444924406047,21.9,101,4.79,21.6
176,B09,2024-05-04,13:00:00,303.0,0.629805615550756,298,0.620086393088553,232,0.19049676025917928,21.9,98,5.2,21.6
177,B09,2024-05-04,12:00:00,291.0,0.5501079913606911,284,0.5306695464362851,210,0.2390928725701944,21.8,82,5.31,21.6
178,B09,2024-05-04,11:00:00,276.0,0.3207343412526998,269,0.34989200863930886,197,0.3207343412526998,21.6,47,5.32,21.6
179,B09,2024-05-04,10:00:00,258.0,0.3304535637149028,280,0.22937365010799138,183,0.11079913606911447,21.5,35,5.5,21.6
180,B09,2024-05-04,09:00:00,267.0,0.15939524838012958,273,0.20993520518358533,152,0.12051835853131748,21.5,36,5.89,21.6
181,B09,2024-05-04,08:00:00,193.0,0.07969762419006479,320,0.1691144708423326,213,0.06997840172786177,21.4,37,6.8,21.6
182,B09,2024-05-04,07:00:00,346.0,0.08941684665226782,327,0.260475161987041,142,0.09913606911447084,21.4,35,6.22,21.6
183,B09,2024-05-04,06:00:00,336.0,0.3304535637149028,336,0.3907127429805616,102,0.1691144708423326,21.4,54,5.05,21.6
184,B09,2024-05-04,05:00:00,333.0,0.44902807775377973,327,0.4606911447084234,70,0.22937365010799138,21.4,54,4.42,21.6
185,B09,2024-05-04,04:00:00,326.0,0.34017278617710583,328,0.2993520518358531,78,0.48984881209503245,21.4,63,4.09,21.6
186,B09,2024-05-04,03:00:00,322.0,0.4801295896328294,325,0.4393088552915767,30,0.4393088552915767,21.4,57,3.61,21.6
187,B09,2024-05-04,02:00:00,299.0,0.4704103671706264,303,0.4393088552915767,344,0.3207343412526998,21.3,61,4.0,21.6
188,B09,2024-05-04,01:00:00,280.0,0.3596112311015119,294,0.3596112311015119,325,0.3207343412526998,21.3,71,3.57,21.6
189,B09,2024-05-04,00:00:00,237.0,0.2002159827213823,267,0.260475161987041,316,0.34989200863930886,21.3,61,4.32,21.6
190,B09,2024-05-03,23:00:00,245.0,0.2390928725701944,269,0.3693304535637149,289,0.27991360691144707,21.3,75,3.95,21.59
191,B09,2024-05-03,22:00:00,189.0,0.15939524838012958,235,0.3207343412526998,298,0.260475161987041,21.3,90,4.05,21.59
192,B09,2024-05-03,21:00:00,109.0,0.05053995680345572,226,0.14967602591792656,277,0.19049676025917928,21.3,85,4.1,21.59
193,B09,2024-05-03,20:00:00,64.0,0.09913606911447084,270,0.06025917926565874,272,0.21965442764578835,21.3,97,4.73,21.59
194,B09,2024-05-03,19:00:00,37.0,0.22937365010799138,5,0.11079913606911447,270,0.08941684665226782,21.3,105,5.54,21.59
195,B09,2024-05-03,18:00:00,3.0,0.4704103671706264,15,0.2993520518358531,253,0.1691144708423326,21.5,109,6.85,21.59
196,B09,2024-05-03,17:00:00,1.0,0.5695464362850972,10,0.44902807775377973,258,0.15939524838012958,21.9,104,7.04,21.59
197,B09,2024-05-03,16:00:00,357.0,0.620086393088553,4,0.5695464362850972,250,0.13995680345572353,21.9,97,7.64,21.59
198,B09,2024-05-03,15:00:00,350.0,0.890280777537797,354,0.7697624190064795,232,0.11079913606911447,22.0,92,8.45,21.59
199,B09,2024-05-03,14:00:00,343.0,0.9796976241900649,344,0.9602591792656588,256,0.18077753779697625,21.8,85,8.04,21.59